[[{"header":{"parameterUnit":"m.s-1","parameterCategory":2,"la1":30.2991,"la2":30.254,"lo1":-89.0895,"lo2":-89.0444,"dy":0.0017,"dx":0.0017,"nx":28,"ny":28,"refTime":"2023-10-01T03:00:00:Z","depth":"0","parameterNumber":2,"parameterNumberName":"U-component_of_CURRENTS"},"data":[0,0,0,0,0,0,0,0,0,0,0,0,0,0,0,0,0,0,0,0,0,0,0,0,0,0,0,0,0,0,0,0,0,0,0,0,0,0,0,0,0,0,0,0,0,0,0,0,0,0,0,0,0,0,0,0,0,0,0.2239,0.2239,0,0.2231,0.2231,0.2231,0.2219,0.2219,0.2218,0.2218,0.219,0.219,0.2189,0,0,0,0,0,0,0,0,0,0,0,0,0,0.2235,0.2235,0.2239,0.2239,0.2239,0.2231,0.2231,0.223,0.2219,0.2219,0.2218,0.2218,0.219,0.219,0.2189,0,0,0,0,0,0,0,0,0,0,0,0,0,0.2231,0.2235,0.2239,0.2234,0.2233,0.2231,0.2231,0.223,0.2219,0.2219,0.2218,0.2218,0.2191,0.219,0.2189,0.2182,0,0,0.2185,0.2185,0,0,0,0,0,0,0,0,0.2231,0.2231,0.2235,0.2234,0.2234,0.2228,0.2219,0.2214,0.2219,0.2222,0.2218,0.2218,0.2202,0.22,0.2196,0.2181,0.218,0.2185,0.2184,0.2184,0.2184,0,0,0,0,0,0,0,0.2232,0.2231,0.2234,0.2235,0.2234,0.2229,0.2228,0.2218,0.221,0.2222,0.2221,0.2224,0.2202,0.2197,0.2195,0.2179,0.2185,0.2184,0.2183,0.2183,0.2202,0.2203,0,0,0,0,0,0,0.2238,0.2232,0.2234,0.2234,0.2235,0.2229,0.2228,0.2228,0.2211,0.2209,0.2224,0.2223,0.2199,0.2197,0.2194,0.2219,0.2184,0.2183,0.2182,0.2201,0.2202,0.2203,0,0,0,0,0,0,0.2237,0.2238,0.2234,0.2234,0.2234,0.223,0.2229,0.2228,0.2231,0.2213,0.221,0.2229,0.2199,0.2196,0.2197,0.2216,0.2182,0.2181,0.2199,0.2201,0.2203,0.2246,0,0,0,0,0,0,0.2237,0.2238,0.2238,0.2235,0.2234,0.2242,0.2229,0.2228,0.2233,0.2232,0.2217,0.2214,0.2199,0.2199,0.2196,0.2214,0.2181,0.2198,0.22,0.2202,0.2243,0.2249,0.2254,0,0,0,0,0,0.2237,0.2238,0.2238,0.2238,0.2235,0.2242,0.2242,0.2237,0.2233,0.2238,0.2231,0.2214,0.2211,0.2199,0.2195,0.2213,0.2197,0.22,0.2202,0.2241,0.2248,0.2254,0,0,0,0,0,0,0.2231,0.2237,0.2237,0.2237,0.2245,0.2241,0.2244,0.2243,0.2241,0.224,0.2222,0.2219,0.2231,0.2217,0.2204,0.2227,0.2204,0.2206,0.2235,0.2242,0.2247,0.2259,0.218,0,0,0,0,0,0.2232,0.2235,0.2242,0.2242,0.2249,0.2249,0.2251,0.2251,0.225,0.2248,0.2238,0.2233,0.2238,0.2235,0.2233,0.2238,0.2256,0.2251,0.2257,0.2261,0.227,0.2318,0.2329,0.2212,0.2212,0.2212,0,0,0.2226,0.2232,0.2231,0.2242,0.2245,0.2257,0.2249,0.2258,0.2269,0.2245,0.2252,0.2251,0.2245,0.2257,0.2261,0.2247,0.2306,0.2265,0.2269,0.2275,0.2322,0.2334,0.2344,0.2214,0.2213,0.2213,0,0,0.2222,0.2227,0.2232,0.2245,0.226,0.2265,0.2272,0.2277,0.2281,0.2289,0.2284,0.2296,0.2288,0.2295,0.2297,0.2331,0.2336,0.2331,0.2364,0.2411,0.2421,0.243,0.2477,0.249,0.2331,0.2331,0.2331,0,0.2216,0.2224,0.2235,0.2249,0.2261,0.2272,0.2285,0.2294,0.2298,0.231,0.2298,0.2318,0.2309,0.234,0.2354,0.2344,0.2373,0.2337,0.2419,0.2428,0.2436,0.2482,0.2496,0.2334,0.2333,0.2333,0.2333,0,0.222,0.223,0.2237,0.226,0.2276,0.2289,0.2311,0.2326,0.2333,0.2343,0.2374,0.237,0.2386,0.2388,0.2379,0.2438,0.2441,0.2422,0.2402,0.2451,0.2496,0.251,0.2337,0.2336,0.2336,0.2335,0,0,0.2189,0.2231,0.2231,0.2248,0.2284,0.2296,0.2328,0.236,0.2386,0.2397,0.2436,0.2446,0.2454,0.2458,0.2456,0.2492,0.2577,0.2487,0.2488,0.2534,0.2693,0.2687,0.2701,0.2577,0.258,0.2582,0.2703,0,0.2186,0.2215,0.2237,0.2265,0.2285,0.2316,0.2346,0.2381,0.2407,0.2449,0.2471,0.2502,0.2478,0.2495,0.253,0.2569,0.2614,0.2546,0.2638,0.264,0.263,0.2716,0.2652,0.2754,0.2716,0.2719,0.272,0,0.2176,0.2203,0.2229,0.2279,0.229,0.231,0.2369,0.2395,0.2463,0.249,0.2533,0.2556,0.2618,0.2588,0.2684,0.2646,0.2678,0.2702,0.2707,0.2695,0.266,0.2697,0.278,0.2745,0.2741,0.2739,0.2738,0,0.2148,0.2192,0.2214,0.2229,0.2288,0.2309,0.2342,0.2405,0.2439,0.2523,0.2569,0.2632,0.2679,0.273,0.2783,0.2744,0.2898,0.2845,0.2871,0.2871,0.283,0.2822,0.2889,0.2923,0.2923,0.2923,0.2922,0,0.2131,0.2144,0.2202,0.2213,0.2242,0.2296,0.2336,0.2379,0.2462,0.2512,0.2586,0.2649,0.2721,0.2809,0.2834,0.2915,0.2943,0.2906,0.2913,0.2844,0.2836,0.2813,0.2779,0.2927,0.2926,0.2925,0.2924,0,0.2081,0.212,0.2144,0.2207,0.2224,0.2242,0.2317,0.2355,0.2444,0.2519,0.2554,0.269,0.2811,0.289,0.2994,0.2986,0.299,0.3071,0.299,0.2984,0.2935,0.2905,0.2867,0.2761,0.311,0.3111,0.3112,0,0.2055,0.2066,0.2118,0.2133,0.2156,0.2198,0.2232,0.2323,0.2374,0.2533,0.2574,0.2735,0.2833,0.3013,0.3061,0.3144,0.304,0.3104,0.3005,0.2957,0.2929,0.2796,0.2696,0.2975,0.2975,0.2974,0.2974,0,0.2002,0.2021,0.2043,0.2076,0.2106,0.2137,0.2198,0.2234,0.235,0.245,0.2586,0.2687,0.2884,0.2967,0.3092,0.3113,0.2974,0.3095,0.307,0.2862,0.2698,0.2589,0.2872,0.297,0.297,0.2971,0.2971,0.2971,0.1954,0.1953,0.1988,0.201,0.2041,0.2063,0.2066,0.2156,0.2236,0.2349,0.2511,0.2649,0.2841,0.3021,0.3029,0.304,0.2956,0.2966,0.2949,0.2829,0.2678,0.2958,0.3039,0.304,0.3041,0.3041,0.3042,0,0.1889,0.1903,0.1925,0.1941,0.194,0.1986,0.2032,0.2031,0.2091,0.2267,0.2389,0.2631,0.2757,0.2889,0.3011,0.2931,0.2748,0.2857,0.266,0.2574,0.2874,0.282,0.2827,0.2827,0.2827,0.2827,0.2827,0.2827,0.1855,0.1847,0.1859,0.1831,0.1845,0.1809,0.1812,0.1838,0.1942,0.2099,0.2263,0.2424,0.2745,0.2988,0.2998,0.2903,0.2648,0.256,0.2494,0.2744,0.2751,0.2759,0.2702,0.2684,0.2684,0.2087,0.2083,0.208]},{"header":{"parameterUnit":"m.s-1","parameterCategory":2,"la1":30.2991,"la2":30.254,"lo1":-89.0895,"lo2":-89.0444,"dy":0.0017,"dx":0.0017,"nx":28,"ny":28,"refTime":"2023-10-01T03:00:00:Z","depth":"0","parameterNumber":3,"parameterNumberName":"V-component_of_CURRENTS"},"data":[0,0,0,0,0,0,0,0,0,0,0,0,0,0,0,0,0,0,0,0,0,0,0,0,0,0,0,0,0,0,0,0,0,0,0,0,0,0,0,0,0,0,0,0,0,0,0,0,0,0,0,0,0,0,0,0,0,0,-0.028,-0.028,0,-0.0337,-0.0337,-0.0338,-0.037,-0.037,-0.037,-0.037,-0.0443,-0.0445,-0.0447,0,0,0,0,0,0,0,0,0,0,0,0,0,-0.0239,-0.0239,-0.028,-0.028,-0.0281,-0.0336,-0.0337,-0.0338,-0.037,-0.037,-0.037,-0.037,-0.0442,-0.0444,-0.0447,0,0,0,0,0,0,0,0,0,0,0,0,0,-0.0273,-0.0239,-0.0279,-0.0303,-0.0305,-0.0336,-0.0337,-0.0338,-0.037,-0.037,-0.037,-0.037,-0.0441,-0.0444,-0.0447,-0.0465,0,0,-0.0456,-0.0457,0,0,0,0,0,0,0,0,-0.0271,-0.0274,-0.0299,-0.0301,-0.0304,-0.0345,-0.035,-0.0381,-0.037,-0.0346,-0.037,-0.037,-0.0411,-0.0416,-0.0428,-0.0468,-0.0471,-0.0456,-0.0458,-0.0459,-0.046,0,0,0,0,0,0,0,-0.0268,-0.0272,-0.0303,-0.0299,-0.0303,-0.0324,-0.0329,-0.0356,-0.0379,-0.0348,-0.0351,-0.0355,-0.0413,-0.0425,-0.043,-0.0472,-0.0456,-0.0459,-0.0461,-0.0462,-0.0518,-0.0517,0,0,0,0,0,0,-0.0257,-0.027,-0.0301,-0.0305,-0.0286,-0.0324,-0.033,-0.0333,-0.0378,-0.0385,-0.0355,-0.0357,-0.042,-0.0427,-0.0433,-0.0443,-0.0459,-0.0462,-0.0464,-0.0518,-0.0517,-0.0517,0,0,0,0,0,0,-0.0256,-0.0259,-0.0299,-0.0288,-0.0294,-0.0325,-0.0328,-0.0334,-0.0343,-0.0383,-0.039,-0.0358,-0.0421,-0.0429,-0.0453,-0.0446,-0.0463,-0.0466,-0.0518,-0.0518,-0.0517,-0.0471,0,0,0,0,0,0,-0.0255,-0.0259,-0.0257,-0.0287,-0.0295,-0.031,-0.0328,-0.0335,-0.0346,-0.0348,-0.0388,-0.0395,-0.0421,-0.0449,-0.0456,-0.0451,-0.0468,-0.0518,-0.0518,-0.0517,-0.0473,-0.047,-0.0466,0,0,0,0,0,-0.0253,-0.0248,-0.0257,-0.0261,-0.0291,-0.0309,-0.0315,-0.0338,-0.0346,-0.0347,-0.0375,-0.0394,-0.0451,-0.0451,-0.046,-0.0455,-0.0519,-0.0518,-0.0518,-0.0475,-0.047,-0.0466,0,0,0,0,0,0,-0.0228,-0.0252,-0.0262,-0.0264,-0.0282,-0.0314,-0.0317,-0.0333,-0.0357,-0.0358,-0.0395,-0.0405,-0.0424,-0.0445,-0.0444,-0.0469,-0.0486,-0.0487,-0.0451,-0.0447,-0.0443,-0.0428,-0.0471,0,0,0,0,0,-0.0221,-0.0223,-0.025,-0.0251,-0.0258,-0.0286,-0.0297,-0.0311,-0.0336,-0.0346,-0.0374,-0.0403,-0.043,-0.0441,-0.047,-0.0483,-0.0511,-0.0485,-0.0481,-0.0478,-0.0471,-0.0521,-0.0521,-0.0515,-0.0515,-0.0515,0,0,-0.0211,-0.0224,-0.0226,-0.0245,-0.0261,-0.0265,-0.0292,-0.0302,-0.0306,-0.0351,-0.0363,-0.0395,-0.0432,-0.0449,-0.0459,-0.0464,-0.0491,-0.0477,-0.0474,-0.0469,-0.052,-0.0521,-0.0522,-0.0515,-0.0515,-0.0515,0,0,-0.0188,-0.0203,-0.0196,-0.0209,-0.0229,-0.0246,-0.0245,-0.0274,-0.0287,-0.0305,-0.0338,-0.0365,-0.0402,-0.0428,-0.0446,-0.044,-0.0474,-0.0445,-0.0412,-0.046,-0.0461,-0.0463,-0.0483,-0.0487,-0.0439,-0.0439,-0.0439,0,-0.0173,-0.0171,-0.0197,-0.0194,-0.0197,-0.0232,-0.0223,-0.0244,-0.0277,-0.0284,-0.03,-0.0357,-0.0392,-0.0414,-0.0412,-0.0432,-0.0456,-0.0425,-0.0456,-0.0458,-0.046,-0.0481,-0.0486,-0.0436,-0.0437,-0.0437,-0.0437,0,-0.0148,-0.0147,-0.0143,-0.0149,-0.0155,-0.0155,-0.0182,-0.0193,-0.0213,-0.0234,-0.0262,-0.0313,-0.0344,-0.036,-0.0386,-0.0411,-0.0421,-0.045,-0.0466,-0.0458,-0.048,-0.0486,-0.0433,-0.0434,-0.0435,-0.0435,0,0,-0.0109,-0.0122,-0.0119,-0.0111,-0.0131,-0.0129,-0.0136,-0.0149,-0.0146,-0.0189,-0.0191,-0.0249,-0.0277,-0.0299,-0.0338,-0.0378,-0.0415,-0.0413,-0.0416,-0.043,-0.0502,-0.0479,-0.0484,-0.0453,-0.0454,-0.0455,-0.0507,0,-0.0079,-0.0061,-0.0076,-0.0052,-0.0043,-0.0071,-0.007,-0.0087,-0.0111,-0.0124,-0.0183,-0.0203,-0.0253,-0.0265,-0.0316,-0.039,-0.0429,-0.0397,-0.051,-0.0513,-0.0492,-0.0489,-0.0474,-0.0517,-0.0512,-0.0513,-0.0514,0,-0.0045,-0.0038,-0.001,0.0,0.0003,0.0011,0.0015,0.0009,-0.0026,-0.0045,-0.0082,-0.0125,-0.0181,-0.023,-0.0352,-0.0329,-0.0408,-0.047,-0.0475,-0.0473,-0.05,-0.0528,-0.0527,-0.0685,-0.0523,-0.0522,-0.0522,0,0.0002,0.0013,0.0041,0.0043,0.0044,0.0055,0.0054,0.0034,0.0046,0.0006,0.001,-0.0071,-0.0099,-0.0218,-0.0334,-0.035,-0.0465,-0.0509,-0.0561,-0.056,-0.0577,-0.0576,-0.0742,-0.0602,-0.0601,-0.0601,-0.0601,0,0.0042,0.0065,0.0065,0.0081,0.0119,0.0102,0.0134,0.012,0.0115,0.0144,0.0056,0.0065,-0.01,-0.0178,-0.0308,-0.0433,-0.0448,-0.0549,-0.0575,-0.0558,-0.0554,-0.0717,-0.0811,-0.0603,-0.0603,-0.0602,-0.0602,0,0.0088,0.0086,0.0122,0.0133,0.0143,0.0169,0.0195,0.0219,0.02,0.0236,0.0232,0.0166,0.0069,-0.0084,-0.0261,-0.0379,-0.0605,-0.0559,-0.0508,-0.0527,-0.0723,-0.0814,-0.1003,-0.1079,-0.0632,-0.0632,-0.0631,0,0.0113,0.0135,0.0167,0.0194,0.0202,0.0233,0.0261,0.0261,0.0292,0.031,0.0337,0.0271,0.0245,0.0006,-0.0216,-0.0424,-0.0592,-0.0555,-0.0593,-0.0726,-0.0848,-0.0924,-0.098,-0.0598,-0.0598,-0.0597,-0.0597,0,0.0162,0.0173,0.0201,0.0253,0.0292,0.0337,0.0375,0.0419,0.0435,0.0474,0.0522,0.0512,0.0307,0.0116,-0.0165,-0.0328,-0.0671,-0.0553,-0.0725,-0.0857,-0.0919,-0.1005,-0.0556,-0.0594,-0.0594,-0.0594,-0.0594,-0.0595,0.0202,0.0229,0.0266,0.0317,0.0367,0.0434,0.0477,0.0537,0.0615,0.0687,0.067,0.0688,0.0406,0.0031,-0.0207,-0.0629,-0.0658,-0.0768,-0.0871,-0.0939,-0.1008,-0.0526,-0.0571,-0.0571,-0.0571,-0.0571,-0.0571,0,0.0248,0.0276,0.0326,0.0387,0.0447,0.0464,0.0552,0.0606,0.0712,0.0796,0.0844,0.0742,0.0378,-0.0009,-0.0558,-0.0882,-0.1033,-0.1079,-0.1212,-0.1259,-0.086,-0.0853,-0.0919,-0.0918,-0.0918,-0.0918,-0.0918,-0.0918,0.0276,0.0327,0.0346,0.0444,0.0489,0.057,0.0623,0.0722,0.0798,0.0903,0.0938,0.0936,0.0669,-0.0335,-0.1073,-0.1256,-0.1505,-0.1554,-0.1693,-0.1447,-0.1427,-0.1408,-0.1425,-0.1608,-0.1609,-0.2047,-0.2051,-0.2055]}],[{"header":{"parameterUnit":"m.s-1","parameterCategory":2,"la1":30.2991,"la2":30.254,"lo1":-89.0895,"lo2":-89.0444,"dy":0.0017,"dx":0.0017,"nx":28,"ny":28,"refTime":"2023-10-01T03:00:00:Z","depth":"2","parameterNumber":2,"parameterNumberName":"U-component_of_CURRENTS"},"data":[0,0,0,0,0,0,0,0,0,0,0,0,0,0,0,0,0,0,0,0,0,0,0,0,0,0,0,0,0,0,0,0,0,0,0,0,0,0,0,0,0,0,0,0,0,0,0,0,0,0,0,0,0,0,0,0,0,0,0.2234,0.2234,0,0.223,0.223,0.223,0.2222,0.2222,0.2222,0.2222,0.2202,0.2201,0.2201,0,0,0,0,0,0,0,0,0,0,0,0,0,0.2223,0.2223,0.2234,0.2234,0.2234,0.223,0.223,0.223,0.2222,0.2222,0.2222,0.2222,0.2202,0.2201,0.22,0,0,0,0,0,0,0,0,0,0,0,0,0,0.2223,0.2223,0.2234,0.2231,0.2231,0.2231,0.223,0.223,0.2222,0.2222,0.2222,0.2222,0.2202,0.2201,0.22,0.2195,0,0,0.2198,0.2197,0,0,0,0,0,0,0,0,0.2223,0.2223,0.2231,0.2231,0.2231,0.2228,0.2219,0.2218,0.2222,0.2223,0.2222,0.2222,0.221,0.2209,0.2206,0.2194,0.2193,0.2198,0.2197,0.2197,0.2197,0,0,0,0,0,0,0,0.2223,0.2223,0.223,0.2231,0.2231,0.2227,0.2227,0.2219,0.2215,0.2223,0.2223,0.2226,0.221,0.2206,0.2205,0.2193,0.2198,0.2197,0.2197,0.2196,0.2221,0.2222,0,0,0,0,0,0,0.2228,0.2223,0.223,0.223,0.2229,0.2227,0.2227,0.2228,0.2215,0.2214,0.2226,0.2226,0.2208,0.2206,0.2204,0.2232,0.2197,0.2196,0.2196,0.222,0.2221,0.2223,0,0,0,0,0,0,0.2228,0.2228,0.2231,0.2228,0.2229,0.2228,0.2228,0.2228,0.2233,0.2218,0.2216,0.2233,0.2208,0.2205,0.221,0.223,0.2196,0.2195,0.2219,0.222,0.2222,0.2265,0,0,0,0,0,0,0.2227,0.2228,0.2231,0.2229,0.2229,0.224,0.2229,0.2228,0.2235,0.2235,0.2223,0.2221,0.2208,0.2211,0.2209,0.2228,0.2194,0.2217,0.2219,0.2221,0.2262,0.2268,0.2273,0,0,0,0,0,0.2227,0.2229,0.2231,0.2232,0.2232,0.224,0.224,0.2238,0.2235,0.2242,0.2237,0.2222,0.2224,0.2211,0.2209,0.2228,0.2216,0.2219,0.2221,0.226,0.2267,0.2273,0,0,0,0,0,0,0.2222,0.2229,0.223,0.2234,0.2242,0.224,0.2244,0.2245,0.2245,0.2246,0.223,0.2228,0.2242,0.223,0.2217,0.2243,0.222,0.2222,0.225,0.2257,0.2262,0.2274,0.2194,0,0,0,0,0,0.2224,0.2229,0.2237,0.224,0.2246,0.2248,0.2251,0.2253,0.2253,0.2253,0.2246,0.2244,0.225,0.2249,0.2248,0.2256,0.2275,0.227,0.2276,0.228,0.2289,0.2341,0.2353,0.2231,0.2231,0.2231,0,0,0.222,0.2227,0.2228,0.224,0.2244,0.2257,0.225,0.226,0.2272,0.2251,0.2261,0.2261,0.2257,0.2271,0.2277,0.2263,0.2326,0.2284,0.2287,0.2294,0.2345,0.2357,0.2368,0.2233,0.2233,0.2232,0,0,0.2219,0.2226,0.2233,0.2245,0.2261,0.2266,0.2274,0.2281,0.2287,0.2297,0.2293,0.2307,0.2302,0.2311,0.2313,0.2349,0.2355,0.2349,0.2383,0.2433,0.2444,0.2453,0.25,0.2513,0.235,0.235,0.235,0,0.2215,0.2225,0.2236,0.2251,0.2262,0.2274,0.2288,0.2298,0.2305,0.2318,0.2307,0.2331,0.2324,0.2356,0.237,0.2361,0.2392,0.2355,0.2441,0.2451,0.246,0.2505,0.2519,0.2352,0.2352,0.2352,0.2352,0,0.2221,0.2233,0.224,0.2264,0.228,0.2294,0.2316,0.2332,0.2341,0.2352,0.2385,0.2384,0.2401,0.2404,0.2396,0.2458,0.246,0.2444,0.2425,0.2475,0.2519,0.2533,0.2356,0.2355,0.2354,0.2354,0,0,0.2194,0.2236,0.2237,0.2254,0.2289,0.2301,0.2334,0.2366,0.2394,0.2407,0.2446,0.246,0.2469,0.2474,0.2472,0.2513,0.2601,0.251,0.2511,0.2557,0.2723,0.2687,0.2698,0.2605,0.2608,0.261,0.2731,0,0.2193,0.2223,0.2245,0.2273,0.2292,0.2323,0.2353,0.2388,0.2417,0.2459,0.2482,0.2514,0.2493,0.251,0.255,0.2591,0.2639,0.257,0.2667,0.267,0.2632,0.2714,0.2492,0.2578,0.2745,0.2747,0.2749,0,0.2186,0.2212,0.2239,0.2288,0.2299,0.2319,0.2378,0.2405,0.2473,0.2501,0.2546,0.2568,0.2632,0.2604,0.2708,0.2669,0.2705,0.2731,0.2736,0.2697,0.266,0.2553,0.2597,0.2772,0.277,0.2768,0.2767,0,0.2159,0.2204,0.2225,0.2241,0.2298,0.232,0.2352,0.2416,0.245,0.2535,0.258,0.2646,0.2694,0.275,0.2806,0.277,0.2927,0.2879,0.288,0.2878,0.2704,0.2682,0.2962,0.2962,0.2962,0.2962,0.2961,0,0.2144,0.2158,0.2215,0.2226,0.2255,0.2307,0.2349,0.2394,0.2476,0.2525,0.2598,0.2658,0.2737,0.2825,0.2855,0.2926,0.2971,0.2912,0.2917,0.2713,0.2692,0.2862,0.2849,0.2966,0.2965,0.2964,0.2964,0,0.2097,0.2135,0.2159,0.2221,0.2238,0.2257,0.2331,0.237,0.2459,0.2532,0.2566,0.2698,0.2813,0.2893,0.3004,0.2992,0.3057,0.3067,0.2827,0.28,0.2958,0.2946,0.3077,0.3077,0.3077,0.3077,0.3077,0,0.2072,0.2083,0.2136,0.2151,0.2173,0.2216,0.2249,0.234,0.239,0.2544,0.2582,0.2732,0.2816,0.2985,0.301,0.308,0.3103,0.2894,0.2775,0.2984,0.2975,0.2963,0.2951,0.2565,0.256,0.2557,0.2554,0,0.2023,0.2041,0.2062,0.2096,0.2126,0.2156,0.2217,0.2251,0.2365,0.2458,0.2583,0.2668,0.2827,0.2809,0.2907,0.2901,0.2861,0.2826,0.3129,0.2569,0.2511,0.2498,0.2502,0.2523,0.2527,0.2529,0.253,0.2532,0.1977,0.1976,0.201,0.2032,0.2064,0.2084,0.2087,0.2167,0.2239,0.2322,0.2478,0.2533,0.2603,0.264,0.2607,0.2581,0.2762,0.2622,0.2629,0.264,0.2558,0.2502,0.2499,0.2502,0.2504,0.2506,0.2508,0,0.1912,0.1928,0.195,0.1966,0.1962,0.201,0.2053,0.2038,0.208,0.2189,0.2277,0.217,0.2189,0.225,0.2181,0.2217,0.2149,0.2112,0.1992,0.2027,0.2057,0.194,0.172,0.1717,0.1714,0.1712,0,0,0.188,0.187,0.1882,0.1852,0.1868,0.1828,0.1831,0.1829,0.1877,0.1888,0.1906,0.2068,0.2192,0.1914,0.1913,0.18,0.1882,0.173,0.2373,0.2268,0.2293,0.2379,0.2243,0,0,0,0,0]},{"header":{"parameterUnit":"m.s-1","parameterCategory":2,"la1":30.2991,"la2":30.254,"lo1":-89.0895,"lo2":-89.0444,"dy":0.0017,"dx":0.0017,"nx":28,"ny":28,"refTime":"2023-10-01T03:00:00:Z","depth":"2","parameterNumber":3,"parameterNumberName":"V-component_of_CURRENTS"},"data":[0,0,0,0,0,0,0,0,0,0,0,0,0,0,0,0,0,0,0,0,0,0,0,0,0,0,0,0,0,0,0,0,0,0,0,0,0,0,0,0,0,0,0,0,0,0,0,0,0,0,0,0,0,0,0,0,0,0,-0.0181,-0.0182,0,-0.0237,-0.0238,-0.0239,-0.0271,-0.0271,-0.0272,-0.0272,-0.0342,-0.0344,-0.0346,0,0,0,0,0,0,0,0,0,0,0,0,0,-0.0134,-0.0135,-0.0181,-0.0182,-0.0182,-0.0237,-0.0238,-0.0239,-0.0271,-0.0271,-0.0272,-0.0272,-0.0342,-0.0344,-0.0346,0,0,0,0,0,0,0,0,0,0,0,0,0,-0.0169,-0.0135,-0.0181,-0.0205,-0.0208,-0.0237,-0.0238,-0.0239,-0.0271,-0.0271,-0.0272,-0.0272,-0.0341,-0.0343,-0.0346,-0.036,0,0,-0.0354,-0.0356,0,0,0,0,0,0,0,0,-0.0167,-0.0171,-0.0201,-0.0203,-0.0206,-0.0247,-0.0247,-0.028,-0.0271,-0.0248,-0.0272,-0.0272,-0.0311,-0.0316,-0.0327,-0.0364,-0.0367,-0.0355,-0.0356,-0.0357,-0.0358,0,0,0,0,0,0,0,-0.0165,-0.0169,-0.0204,-0.0201,-0.0205,-0.0224,-0.0229,-0.0254,-0.0279,-0.025,-0.0252,-0.0257,-0.0313,-0.0324,-0.0329,-0.0368,-0.0355,-0.0357,-0.0359,-0.036,-0.0411,-0.0411,0,0,0,0,0,0,-0.0155,-0.0167,-0.0202,-0.0206,-0.0186,-0.0224,-0.023,-0.0234,-0.0278,-0.0285,-0.0257,-0.0259,-0.032,-0.0326,-0.0332,-0.0342,-0.0357,-0.036,-0.0361,-0.0412,-0.0411,-0.0411,0,0,0,0,0,0,-0.0154,-0.0158,-0.02,-0.0187,-0.0194,-0.0225,-0.023,-0.0235,-0.0246,-0.0284,-0.0291,-0.0262,-0.032,-0.0328,-0.0352,-0.0345,-0.0361,-0.0364,-0.0412,-0.0412,-0.0411,-0.0368,0,0,0,0,0,0,-0.0152,-0.0157,-0.0157,-0.0186,-0.0194,-0.0212,-0.023,-0.0236,-0.0249,-0.0251,-0.029,-0.0297,-0.0321,-0.0348,-0.0355,-0.0349,-0.0366,-0.0412,-0.0412,-0.0411,-0.037,-0.0367,-0.0364,0,0,0,0,0,-0.015,-0.0147,-0.0157,-0.0161,-0.0193,-0.0211,-0.0217,-0.024,-0.0249,-0.0251,-0.0278,-0.0296,-0.0349,-0.035,-0.0358,-0.0353,-0.0413,-0.0412,-0.0411,-0.0372,-0.0367,-0.0364,0,0,0,0,0,0,-0.0126,-0.0151,-0.0162,-0.0167,-0.0185,-0.0216,-0.0221,-0.0237,-0.026,-0.0262,-0.0297,-0.0306,-0.0325,-0.0344,-0.0344,-0.0366,-0.0382,-0.0383,-0.0349,-0.0345,-0.0342,-0.0327,-0.0368,0,0,0,0,0,-0.0121,-0.0125,-0.0152,-0.0155,-0.0163,-0.0191,-0.0201,-0.0216,-0.0241,-0.0251,-0.0278,-0.0305,-0.033,-0.0341,-0.0367,-0.038,-0.0406,-0.0381,-0.0377,-0.0374,-0.0367,-0.0415,-0.0415,-0.0409,-0.0409,-0.0409,0,0,-0.0112,-0.0126,-0.0129,-0.015,-0.0166,-0.017,-0.0197,-0.0209,-0.0212,-0.0255,-0.0267,-0.0298,-0.0332,-0.0347,-0.0357,-0.0362,-0.0387,-0.0374,-0.0371,-0.0365,-0.0414,-0.0415,-0.0415,-0.0409,-0.0409,-0.0409,0,0,-0.0092,-0.0109,-0.0104,-0.0117,-0.0138,-0.0153,-0.0154,-0.0183,-0.0196,-0.0214,-0.0244,-0.027,-0.0305,-0.0328,-0.0344,-0.0338,-0.0372,-0.0343,-0.0312,-0.0358,-0.0359,-0.036,-0.0383,-0.0387,-0.0338,-0.0338,-0.0337,0,-0.0079,-0.008,-0.0105,-0.0104,-0.0107,-0.0141,-0.0133,-0.0153,-0.0185,-0.0192,-0.021,-0.0263,-0.0295,-0.0313,-0.0312,-0.033,-0.0356,-0.0324,-0.0354,-0.0356,-0.0358,-0.0382,-0.0386,-0.0335,-0.0336,-0.0336,-0.0336,0,-0.0057,-0.0058,-0.0055,-0.0062,-0.0068,-0.0069,-0.0094,-0.0105,-0.0125,-0.0145,-0.0171,-0.0219,-0.0248,-0.0263,-0.0287,-0.031,-0.0323,-0.0348,-0.0363,-0.0356,-0.0381,-0.0387,-0.0332,-0.0333,-0.0334,-0.0334,0,0,-0.0024,-0.0036,-0.0035,-0.0026,-0.0046,-0.0043,-0.0049,-0.0061,-0.0058,-0.01,-0.0101,-0.0155,-0.0183,-0.0202,-0.0239,-0.0277,-0.0315,-0.0313,-0.0316,-0.0333,-0.0403,-0.0378,-0.0382,-0.0351,-0.0352,-0.0353,-0.0411,0,0.0004,0.002,0.0006,0.003,0.0038,0.0012,0.0014,-0.0002,-0.0024,-0.0036,-0.009,-0.0109,-0.0159,-0.0171,-0.0219,-0.029,-0.033,-0.0296,-0.0409,-0.0412,-0.039,-0.0388,-0.0356,-0.0402,-0.0417,-0.0418,-0.0419,0,0.0033,0.004,0.0067,0.008,0.0083,0.009,0.0096,0.0091,0.006,0.0042,0.0007,-0.0035,-0.0086,-0.0136,-0.0254,-0.0231,-0.0312,-0.0372,-0.0376,-0.0371,-0.0398,-0.0415,-0.0412,-0.0428,-0.0428,-0.0427,-0.0426,0,0.0077,0.0088,0.0116,0.0118,0.0122,0.0132,0.0132,0.0114,0.0127,0.0091,0.0096,0.002,-0.0007,-0.0123,-0.0239,-0.0255,-0.0366,-0.0409,-0.0461,-0.046,-0.0462,-0.0459,-0.0502,-0.0501,-0.0501,-0.0501,-0.0501,0,0.0114,0.0137,0.0137,0.0153,0.0191,0.0176,0.0208,0.0196,0.0194,0.0225,0.014,0.015,-0.0009,-0.0085,-0.0213,-0.0336,-0.0351,-0.045,-0.0475,-0.0444,-0.0439,-0.0488,-0.0486,-0.0503,-0.0503,-0.0502,-0.0502,0,0.0156,0.0155,0.019,0.0203,0.0213,0.0238,0.0266,0.029,0.0274,0.0311,0.0308,0.0247,0.0151,0.0002,-0.017,-0.0284,-0.0417,-0.0461,-0.0396,-0.0412,-0.049,-0.0485,-0.0536,-0.0536,-0.0535,-0.0535,-0.0535,0,0.0179,0.02,0.0233,0.026,0.0267,0.0298,0.0326,0.033,0.0362,0.0382,0.0411,0.0344,0.0317,0.0087,-0.0125,-0.033,-0.038,-0.0441,-0.0474,-0.0475,-0.0495,-0.049,-0.0486,-0.0462,-0.0461,-0.046,-0.046,0,0.0225,0.0235,0.0263,0.0314,0.0353,0.0399,0.0437,0.0482,0.0501,0.0539,0.0585,0.0573,0.0376,0.019,-0.0082,-0.0228,-0.0406,-0.0433,-0.0465,-0.0446,-0.0407,-0.0426,-0.0424,-0.0454,-0.0455,-0.0455,-0.0455,-0.0456,0.0262,0.0288,0.0324,0.0374,0.0424,0.0492,0.0534,0.0595,0.0671,0.0735,0.0717,0.0703,0.0498,0.0165,-0.0077,-0.0344,-0.0349,-0.0454,-0.0456,-0.0459,-0.0428,-0.0389,-0.0426,-0.0427,-0.0427,-0.0427,-0.0428,0,0.0306,0.0332,0.0381,0.0442,0.0502,0.0518,0.0607,0.066,0.0761,0.0818,0.0854,0.0688,0.0485,0.0234,-0.0146,-0.037,-0.0409,-0.0447,-0.0447,-0.045,-0.0453,-0.0423,-0.042,-0.0421,-0.0422,-0.0422,0,0,0.0332,0.0382,0.0401,0.0497,0.0541,0.0623,0.0676,0.077,0.0826,0.0895,0.0893,0.0862,0.0573,0.0308,0.0006,-0.0214,-0.0291,-0.0262,-0.0242,-0.021,-0.0211,-0.0427,-0.0379,0,0,0,0,0]}],[{"header":{"parameterUnit":"m.s-1","parameterCategory":2,"la1":30.2991,"la2":30.254,"lo1":-89.0895,"lo2":-89.0444,"dy":0.0017,"dx":0.0017,"nx":28,"ny":28,"refTime":"2023-10-01T03:00:00:Z","depth":"4","parameterNumber":2,"parameterNumberName":"U-component_of_CURRENTS"},"data":[0,0,0,0,0,0,0,0,0,0,0,0,0,0,0,0,0,0,0,0,0,0,0,0,0,0,0,0,0,0,0,0,0,0,0,0,0,0,0,0,0,0,0,0,0,0,0,0,0,0,0,0,0,0,0,0,0,0,0.153,0.153,0,0.1582,0.1583,0.1583,0.1633,0.1633,0.1634,0.1635,0.1686,0.1687,0.1688,0,0,0,0,0,0,0,0,0,0,0,0,0,0.1447,0.1448,0.153,0.153,0.1531,0.1582,0.1583,0.1583,0.1632,0.1633,0.1634,0.1635,0.1686,0.1687,0.1688,0,0,0,0,0,0,0,0,0,0,0,0,0,0.1488,0.1449,0.1529,0.1563,0.1567,0.1582,0.1583,0.1583,0.1632,0.1633,0.1635,0.1636,0.1686,0.1687,0.1688,0.167,0,0,0.1691,0.1691,0,0,0,0,0,0,0,0,0.1485,0.149,0.1558,0.1561,0.1565,0.1604,0.1573,0.1613,0.1632,0.1605,0.1635,0.1636,0.1659,0.1662,0.1667,0.1672,0.1674,0.1691,0.1691,0.1692,0.1692,0,0,0,0,0,0,0,0.1482,0.1488,0.1548,0.1558,0.1563,0.1568,0.1575,0.158,0.1623,0.1608,0.1612,0.1621,0.1661,0.1666,0.1668,0.1675,0.1691,0.1692,0.1692,0.1693,0.177,0.1772,0,0,0,0,0,0,0.148,0.1486,0.1547,0.155,0.153,0.1568,0.1576,0.1589,0.1623,0.1631,0.1619,0.1623,0.1663,0.1667,0.167,0.1742,0.1692,0.1693,0.1693,0.1769,0.1771,0.1772,0,0,0,0,0,0,0.1478,0.1485,0.1545,0.152,0.1529,0.1569,0.1582,0.1589,0.1628,0.1633,0.164,0.1656,0.1665,0.1669,0.1709,0.1741,0.1693,0.1694,0.1767,0.1769,0.1772,0.1826,0,0,0,0,0,0,0.1475,0.1484,0.1507,0.152,0.153,0.1575,0.1581,0.1589,0.1631,0.1636,0.1665,0.167,0.1666,0.1707,0.171,0.1741,0.1695,0.1765,0.1768,0.1771,0.1822,0.183,0.1836,0,0,0,0,0,0.1472,0.1493,0.1507,0.1516,0.1555,0.1577,0.1582,0.1613,0.1632,0.1652,0.1677,0.1671,0.1727,0.1709,0.1712,0.1744,0.1764,0.1767,0.1771,0.1819,0.1828,0.1836,0,0,0,0,0,0,0.1469,0.15,0.1517,0.1547,0.1572,0.1586,0.1614,0.163,0.1666,0.1683,0.1686,0.1692,0.1739,0.1734,0.1714,0.1776,0.1746,0.175,0.1782,0.179,0.1797,0.1797,0.1695,0,0,0,0,0,0.1478,0.1506,0.1529,0.1558,0.1574,0.16,0.1619,0.164,0.1665,0.1684,0.1704,0.1727,0.1747,0.1765,0.1778,0.1809,0.1804,0.1833,0.184,0.1846,0.1848,0.1861,0.1869,0.1783,0.1783,0.1783,0,0,0.1485,0.1507,0.1525,0.1561,0.1585,0.1609,0.1616,0.1655,0.1683,0.1682,0.1737,0.1753,0.1761,0.18,0.182,0.1805,0.1873,0.185,0.1855,0.1854,0.1865,0.1874,0.1881,0.1786,0.1785,0.1785,0,0,0.15,0.1535,0.156,0.1584,0.1626,0.1639,0.1658,0.1692,0.1722,0.1765,0.1777,0.1814,0.1844,0.1857,0.1866,0.1919,0.1909,0.1931,0.1967,0.198,0.1987,0.1993,0.2015,0.2022,0.1935,0.1935,0.1935,0,0.151,0.1543,0.1571,0.1598,0.1623,0.1657,0.1684,0.1713,0.1759,0.1785,0.1795,0.1857,0.1868,0.1909,0.1934,0.1934,0.1943,0.1933,0.1988,0.1994,0.1999,0.202,0.2027,0.1938,0.1938,0.1937,0.1937,0,0.1532,0.157,0.1589,0.1635,0.1663,0.1696,0.1733,0.1775,0.1814,0.1839,0.1902,0.1921,0.1957,0.1971,0.1971,0.202,0.2017,0.1994,0.1964,0.201,0.203,0.2037,0.1942,0.1941,0.194,0.194,0,0,0.1518,0.159,0.16,0.1629,0.1688,0.1709,0.1766,0.1815,0.1858,0.1908,0.1958,0.2004,0.2025,0.2036,0.2046,0.2063,0.2115,0.2053,0.2052,0.207,0.2159,0.2057,0.2054,0.2104,0.2105,0.2106,0.2164,0,0.1529,0.1585,0.1617,0.1672,0.1702,0.1751,0.1796,0.185,0.1901,0.1957,0.1994,0.2046,0.2046,0.2078,0.2096,0.211,0.2134,0.2103,0.2115,0.2116,0.2014,0.2058,0.211,0.2169,0.2171,0.2172,0.2172,0,0.1529,0.1572,0.1626,0.1697,0.1715,0.1755,0.1835,0.1879,0.196,0.2004,0.2063,0.2092,0.2148,0.2131,0.2181,0.2165,0.2174,0.2176,0.2177,0.2063,0.2025,0.2109,0.2184,0.2183,0.2182,0.2182,0.2181,0,0.1494,0.1572,0.1618,0.1643,0.1727,0.1768,0.1818,0.19,0.1944,0.2042,0.2087,0.2147,0.2192,0.2207,0.2234,0.2214,0.2275,0.224,0.2157,0.2151,0.2201,0.2194,0.2269,0.2269,0.2269,0.2269,0.2269,0,0.1472,0.1513,0.1613,0.1637,0.1695,0.1763,0.1831,0.1892,0.1982,0.2028,0.2112,0.2153,0.2214,0.2255,0.2257,0.2234,0.2298,0.2171,0.2156,0.2226,0.2221,0.2206,0.2198,0.2271,0.2271,0.227,0.227,0,0.1413,0.1482,0.1538,0.1643,0.1678,0.1721,0.1828,0.1871,0.1974,0.2038,0.2074,0.2177,0.2231,0.2281,0.2318,0.2258,0.2248,0.2226,0.2325,0.2314,0.2111,0.2105,0.2123,0.212,0.2117,0.2115,0.2113,0,0.1383,0.141,0.1527,0.1564,0.1615,0.1694,0.1742,0.1854,0.1894,0.203,0.2044,0.215,0.2204,0.2176,0.2242,0.2249,0.2224,0.2206,0.2128,0.211,0.2095,0.2094,0.2092,0.2108,0.2108,0.2107,0.2106,0,0.1322,0.1377,0.1426,0.1505,0.1567,0.1618,0.1698,0.1712,0.1829,0.1941,0.1966,0.1998,0.2064,0.2097,0.2135,0.2129,0.2202,0.2176,0.2181,0.2108,0.2093,0.208,0.2082,0.2097,0.2098,0.2099,0.21,0,0.1278,0.1296,0.1373,0.1425,0.1497,0.1516,0.157,0.1614,0.1664,0.1805,0.1812,0.1928,0.2035,0.2037,0.2065,0.2065,0.2024,0.194,0.1956,0.1967,0.1891,0.1848,0.1768,0,0,0,0,0,0.1224,0.1238,0.1287,0.1334,0.1399,0.1441,0.1525,0.158,0.1688,0.166,0.1728,0.1779,0.1825,0.1891,0.186,0.201,0.2041,0.1967,0.1954,0.2045,0.2056,0.1981,0,0,0,0,0,0,0.1189,0.1235,0.1253,0.1245,0.1261,0.1315,0.1363,0.1441,0.1429,0.1548,0.1582,0.1681,0.1755,0.1826,0.1829,0.1851,0.1808,0.2047,0.2043,0.2039,0.2048,0.2057,0.1984,0,0,0,0,0]},{"header":{"parameterUnit":"m.s-1","parameterCategory":2,"la1":30.2991,"la2":30.254,"lo1":-89.0895,"lo2":-89.0444,"dy":0.0017,"dx":0.0017,"nx":28,"ny":28,"refTime":"2023-10-01T03:00:00:Z","depth":"4","parameterNumber":3,"parameterNumberName":"V-component_of_CURRENTS"},"data":[0,0,0,0,0,0,0,0,0,0,0,0,0,0,0,0,0,0,0,0,0,0,0,0,0,0,0,0,0,0,0,0,0,0,0,0,0,0,0,0,0,0,0,0,0,0,0,0,0,0,0,0,0,0,0,0,0,0,0.0007,0.0007,0,-0.0037,-0.0037,-0.0038,-0.0065,-0.0065,-0.0065,-0.0066,-0.0117,-0.0118,-0.0119,0,0,0,0,0,0,0,0,0,0,0,0,0,0.0054,0.0053,0.0007,0.0006,0.0006,-0.0037,-0.0037,-0.0038,-0.0065,-0.0065,-0.0065,-0.0066,-0.0116,-0.0118,-0.0119,0,0,0,0,0,0,0,0,0,0,0,0,0,0.0024,0.0053,0.0007,-0.0013,-0.0015,-0.0037,-0.0037,-0.0038,-0.0065,-0.0065,-0.0066,-0.0066,-0.0116,-0.0118,-0.0119,-0.0126,0,0,-0.0125,-0.0126,0,0,0,0,0,0,0,0,0.0026,0.0022,-0.0009,-0.0011,-0.0014,-0.0046,-0.004,-0.0068,-0.0065,-0.0046,-0.0066,-0.0066,-0.0093,-0.0097,-0.0105,-0.0128,-0.013,-0.0125,-0.0126,-0.0127,-0.0127,0,0,0,0,0,0,0,0.0028,0.0024,-0.001,-0.001,-0.0013,-0.0024,-0.0029,-0.0045,-0.0068,-0.0048,-0.005,-0.0055,-0.0095,-0.0103,-0.0106,-0.0131,-0.0125,-0.0127,-0.0128,-0.0128,-0.0165,-0.0165,0,0,0,0,0,0,0.0034,0.0026,-0.0009,-0.0012,0.0006,-0.0025,-0.003,-0.0035,-0.0068,-0.0073,-0.0054,-0.0056,-0.01,-0.0104,-0.0108,-0.0116,-0.0127,-0.0129,-0.013,-0.0165,-0.0165,-0.0165,0,0,0,0,0,0,0.0035,0.0031,-0.0007,0.0006,0.0001,-0.0025,-0.0031,-0.0036,-0.0046,-0.0073,-0.0078,-0.006,-0.01,-0.0105,-0.0123,-0.0118,-0.0129,-0.0131,-0.0165,-0.0165,-0.0165,-0.0133,0,0,0,0,0,0,0.0037,0.0032,0.003,0.0007,0.0,-0.0018,-0.0031,-0.0037,-0.0049,-0.0051,-0.0079,-0.0084,-0.0101,-0.0121,-0.0125,-0.0121,-0.0133,-0.0165,-0.0165,-0.0165,-0.0134,-0.0131,-0.0129,0,0,0,0,0,0.0039,0.0038,0.0031,0.0026,-0.0002,-0.0018,-0.0022,-0.0041,-0.0048,-0.0051,-0.0071,-0.0083,-0.0122,-0.0122,-0.0127,-0.0123,-0.0165,-0.0165,-0.0165,-0.0135,-0.0132,-0.0129,0,0,0,0,0,0,0.0058,0.0035,0.0026,0.0018,0.0003,-0.0022,-0.0026,-0.0039,-0.0057,-0.0059,-0.0084,-0.0091,-0.0105,-0.0119,-0.0118,-0.0133,-0.0145,-0.0145,-0.012,-0.0117,-0.0115,-0.0099,-0.0134,0,0,0,0,0,0.0062,0.0056,0.0032,0.0027,0.002,-0.0003,-0.0011,-0.0024,-0.0043,-0.0052,-0.0072,-0.0091,-0.0108,-0.0116,-0.0135,-0.0142,-0.0152,-0.0143,-0.014,-0.0138,-0.0129,-0.0133,-0.0129,-0.0164,-0.0164,-0.0164,0,0,0.0069,0.0055,0.0052,0.0031,0.0018,0.0014,-0.0008,-0.002,-0.0022,-0.0054,-0.0064,-0.0087,-0.011,-0.012,-0.0127,-0.013,-0.0137,-0.0138,-0.0136,-0.0128,-0.0132,-0.0128,-0.0125,-0.0163,-0.0164,-0.0164,0,0,0.0082,0.0067,0.0067,0.0056,0.0037,0.0025,0.0023,-0.0001,-0.0012,-0.0026,-0.0048,-0.0066,-0.0093,-0.0105,-0.0115,-0.011,-0.0127,-0.0118,-0.009,-0.0093,-0.009,-0.0088,-0.0107,-0.0106,-0.0113,-0.0113,-0.0113,0,0.0093,0.0088,0.0066,0.0064,0.0061,0.0034,0.0039,0.0024,-0.0003,-0.0007,-0.0024,-0.0058,-0.0083,-0.0088,-0.0089,-0.0104,-0.0113,-0.0098,-0.0089,-0.0087,-0.0085,-0.0105,-0.0105,-0.0111,-0.0111,-0.0111,-0.0112,0,0.0104,0.0102,0.0102,0.0093,0.0089,0.0087,0.0068,0.0058,0.0042,0.0028,0.0012,-0.0022,-0.004,-0.0052,-0.0071,-0.0066,-0.0081,-0.0088,-0.0094,-0.0079,-0.0102,-0.0102,-0.0109,-0.0109,-0.011,-0.011,0,0,0.0126,0.0113,0.0115,0.0122,0.0106,0.0107,0.0103,0.0097,0.0101,0.0068,0.0073,0.0035,0.0015,0.0003,-0.0024,-0.0028,-0.0033,-0.0048,-0.0049,-0.0062,-0.0049,-0.0081,-0.0085,-0.0035,-0.0035,-0.0034,-0.0076,0,0.0144,0.0153,0.0143,0.0162,0.0168,0.0149,0.0153,0.0143,0.0127,0.0122,0.0088,0.0079,0.0037,0.003,0.0017,-0.0016,-0.0029,-0.0021,-0.0065,-0.0067,-0.0092,-0.0084,-0.0033,-0.0076,-0.0076,-0.0076,-0.0076,0,0.016,0.0166,0.0186,0.0201,0.0203,0.0212,0.0221,0.0219,0.0201,0.0191,0.0171,0.0141,0.012,0.0086,0.0037,0.0046,-0.0,-0.0028,-0.003,-0.0068,-0.0098,-0.0092,-0.0077,-0.0077,-0.0077,-0.0077,-0.0077,0,0.0191,0.0201,0.0224,0.0226,0.0233,0.0244,0.0248,0.0239,0.0253,0.0236,0.0243,0.0204,0.0192,0.0139,0.0058,0.0054,0.0006,-0.0009,-0.0084,-0.0088,-0.0061,-0.0063,-0.0042,-0.0042,-0.0042,-0.0042,-0.0042,0,0.0214,0.0234,0.024,0.0252,0.0287,0.0278,0.031,0.0305,0.0314,0.034,0.0281,0.029,0.0208,0.016,0.0083,-0.0004,0.0019,-0.0076,-0.0095,-0.0049,-0.005,-0.0062,-0.0063,-0.0043,-0.0043,-0.0043,-0.0042,0,0.0241,0.0244,0.0273,0.029,0.0302,0.0324,0.0359,0.038,0.0377,0.0411,0.0412,0.0367,0.0297,0.0198,0.0111,0.0032,-0.0049,-0.0089,-0.0041,-0.0057,-0.0148,-0.0147,-0.0169,-0.017,-0.0171,-0.0172,-0.0173,0,0.0253,0.027,0.0305,0.033,0.034,0.0371,0.0398,0.0413,0.0439,0.0458,0.0478,0.0422,0.0371,0.0227,0.0112,-0.0046,-0.0076,-0.0126,-0.0133,-0.0142,-0.0158,-0.0156,-0.0154,-0.0175,-0.0175,-0.0175,-0.0176,0,0.028,0.0293,0.0317,0.0364,0.0401,0.0444,0.048,0.0511,0.0532,0.0537,0.0541,0.0456,0.0369,0.0236,0.0103,-0.0009,-0.0094,-0.0138,-0.0137,-0.0144,-0.015,-0.0164,-0.0161,-0.0179,-0.0179,-0.0179,-0.0178,0,0.0302,0.0322,0.0355,0.0396,0.0448,0.05,0.0516,0.0547,0.0577,0.0592,0.0595,0.0495,0.0443,0.0254,0.014,0.0016,-0.002,-0.0061,-0.0065,-0.0062,-0.0029,-0.0021,-0.0021,0,0,0,0,0,0.0319,0.0342,0.0384,0.0431,0.0483,0.0511,0.0567,0.0579,0.0602,0.0616,0.0609,0.0526,0.0354,0.0278,0.015,0.0098,-0.0056,-0.0059,-0.0108,-0.0201,-0.0197,-0.0181,0,0,0,0,0,0,0.033,0.0368,0.0384,0.0452,0.0487,0.0547,0.0585,0.0602,0.0602,0.061,0.0522,0.0482,0.0312,0.043,0.0146,0.0106,0.0054,-0.014,-0.0143,-0.0204,-0.02,-0.0196,-0.0178,0,0,0,0,0]}]]